Location: Favalello
(42.2939°N, 9.2706°E)
Time: 00:23:38
(UTC+00:00)

Feng Yun 1-1 Rocket - Pass Details

Date: 06 December 2019
Orbit: 830 x 933 km, 99.2° (Epoch: 17 January)

Event Time Altitude Azimuth Distance (km) Brightness Sun altitude
Rises 16:47:14 0° 165° (SSE) 3,384 7.4 -10.3°
Reaches altitude 10° 16:49:35 10° 165° (SSE) 2,444 6.7 -10.7°
Maximum altitude 16:55:00 87° 253° (WSW) 839 4.2 -11.6°
Drops below altitude 10° 17:00:25 10° 345° (NNW) 2,446 6.6 -12.6°
Sets 17:02:47 0° 346° (NNW) 3,387 7.3 -13.0°
